This is the latest recevied weather packets stored in our database for station/object KO4APQ. If no packets are shown the sender has not sent any weather packets the latest 10 day(s).
| Time | Temp. | Humidity | Pressure | Rain* | Wind** | Luminosity | Snow |
|---|---|---|---|---|---|---|---|
| 1777925623 | 25° C | 33% | 1015 hPa | 0 mm | - | 517 W/m² | - |
| 1777925320 | 25° C | 35% | 1015 hPa | 0 mm | - | 590 W/m² | - |
| 1777925017 | 25° C | 32% | 1015 hPa | 0 mm | - | 562 W/m² | - |
| 1777924713 | 25° C | 35% | 1014.9 hPa | 0 mm | - | 467 W/m² | - |
| 1777924409 | 24.44° C | 34% | 1015.2 hPa | 0 mm | - | 588 W/m² | - |
| 1777923802 | 25° C | 33% | 1015 hPa | 0 mm | - | 788 W/m² | - |
| 1777923498 | 25° C | 34% | 1015.2 hPa | 0 mm | - | 742 W/m² | - |
| 1777923196 | 24.44° C | 32% | 1015.2 hPa | 0 mm | - | 750 W/m² | - |
| 1777922894 | 24.44° C | 33% | 1015.5 hPa | 0 mm | - | 531 W/m² | - |
| 1777922592 | 24.44° C | 34% | 1015.5 hPa | 0 mm | - | 704 W/m² | - |
| 1777922290 | 25° C | 33% | 1015.5 hPa | 0 mm | - | 788 W/m² | - |
| 1777921987 | 25° C | 34% | 1015.6 hPa | 0 mm | - | 807 W/m² | - |
| 1777921379 | 24.44° C | 34% | 1015.6 hPa | 0 mm | - | 844 W/m² | - |
| 1777920773 | 24.44° C | 34% | 1015.9 hPa | 0 mm | - | 844 W/m² | - |
| 1777919860 | 23.89° C | 35% | 1015.9 hPa | 0 mm | - | 878 W/m² | - |
| 1777919557 | 23.89° C | 36% | 1016.1 hPa | 0 mm | - | 856 W/m² | - |
| 1777919255 | 24.44° C | 34% | 1016.3 hPa | 0 mm | - | 894 W/m² | - |
| 1777918952 | 24.44° C | 35% | 1016.2 hPa | 0 mm | - | 894 W/m² | - |
| 1777918650 | 24.44° C | 36% | 1016.3 hPa | 0 mm | - | 902 W/m² | - |
| 1777918347 | 23.89° C | 36% | 1016.3 hPa | 0 mm | - | 854 W/m² | - |
| 1777918046 | 24.44° C | 34% | 1016.2 hPa | 0 mm | - | 887 W/m² | - |
| 1777917744 | 23.89° C | 36% | 1016.6 hPa | 0 mm | - | 876 W/m² | - |
| 1777917442 | 23.89° C | 35% | 1016.6 hPa | 0 mm | - | 874 W/m² | - |
| 1777916837 | 23.89° C | 33% | 1016.7 hPa | 0 mm | - | 897 W/m² | - |
| 1777916230 | 23.33° C | 33% | 1016.8 hPa | 0 mm | - | 890 W/m² | - |
* Rain latest hour (hover to see other rain measurements)
** Current wind speed in m/s (hover to see current wind gust speed)